VK4VP-5 Weather Reports


Display with metric or nautical units.
time (UTC)temp
F
wind
direction
speed
MPH
gust
MPH
rain 1hr
in
rain 24hr
in
rain mn
in
humidity
%
barometer
mb
20260509234435 74 163 2.0 5.0 0.00 0.00 0.00 80 1021.3
20260509233934 74 183 1.0 8.0 0.00 0.00 0.00 82 1021.3
20260509233435 74 200 1.0 8.0 0.00 0.00 0.00 82 1021.3
20260509232934 73 205 1.0 6.0 0.00 0.00 0.00 83 1021.1
20260509232435 73 217 1.0 6.0 0.00 0.00 0.00 83 1021.1
20260509231933 73 206 1.0 4.0 0.00 0.00 0.00 83 1021.1
20260509231434 73 0 0.0 5.0 0.00 0.00 0.00 84 1020.8
20260509230937 72 0 0.0 5.0 0.00 0.00 0.00 85 1020.8
20260509230434 72 0 0.0 4.0 0.00 0.00 0.00 85 1020.8
20260509225934 71 179 1.0 3.0 0.00 0.00 0.00 86 1020.6
20260509225435 71 193 1.0 5.0 0.00 0.00 0.00 86 1020.6
20260509224934 70 203 1.0 5.0 0.00 0.00 0.00 87 1020.6
20260509224434 70 0 0.0 5.0 0.00 0.00 0.00 88 1020.6
20260509223933 70 225 1.0 6.0 0.00 0.00 0.00 88 1020.6
20260509223435 69 0 0.0 6.0 0.00 0.00 0.00 90 1020.6
20260509222935 69 240 1.0 7.0 0.00 0.00 0.00 91 1020.5
20260509222435 68 242 1.0 7.0 0.00 0.00 0.00 92 1020.5
20260509221935 68 0 0.0 4.0 0.00 0.00 0.00 93 1020.5
20260509221435 67 0 0.0 6.0 0.00 0.00 0.00 94 1020.3
20260509220934 66 242 1.0 7.0 0.00 0.00 0.00 94 1020.3
20260509220434 66 0 0.0 7.0 0.00 0.00 0.00 95 1020.3
20260509215933 65 0 0.0 3.0 0.00 0.00 0.00 95 1020.2
20260509215435 64 0 0.0 3.0 0.00 0.00 0.00 95 1020.2
20260509214934 64 0 0.0 2.0 0.00 0.00 0.00 95 1020.2
20260509214435 64 0 0.0 2.0 0.00 0.00 0.00 96 1019.9
20260509213935 63 0 0.0 3.0 0.00 0.00 0.00 96 1019.9
20260509213433 63 0 0.0 3.0 0.00 0.00 0.00 96 1019.9
20260509212933 62 0 0.0 2.0 0.00 0.00 0.00 96 1019.8
20260509212435 62 0 0.0 2.0 0.00 0.00 0.00 96 1019.8
20260509211935 62 0 0.0 3.0 0.00 0.00 0.00 96 1019.8
20260509211434 62 0 0.0 4.0 0.00 0.00 0.00 96 1019.4
20260509210935 62 0 0.0 4.0 0.00 0.00 0.00 96 1019.4
20260509210435 62 0 0.0 0.0 0.00 0.00 0.00 96 1019.4
20260509205934 61 0 0.0 1.0 0.00 0.00 0.00 96 1019.4
20260509205434 61 0 0.0 1.0 0.00 0.00 0.00 95 1019.4
20260509204934 61 0 0.0 2.0 0.00 0.00 0.00 95 1019.4
20260509204434 61 0 0.0 2.0 0.00 0.00 0.00 95 1019.3
20260509203934 61 0 0.0 2.0 0.00 0.00 0.00 95 1019.3
20260509203435 61 0 0.0 0.0 0.00 0.00 0.00 96 1019.3
20260509202934 61 0 0.0 3.0 0.00 0.00 0.00 96 1019.1
20260509202435 61 0 0.0 3.0 0.00 0.00 0.00 96 1019.1
20260509201935 61 0 0.0 0.0 0.00 0.00 0.00 96 1019.1
20260509201434 61 0 0.0 0.0 0.00 0.00 0.00 96 1019.0
20260509200934 61 0 0.0 0.0 0.00 0.00 0.00 96 1019.0
20260509200435 61 0 0.0 0.0 0.00 0.00 0.00 96 1019.0
20260509195935 61 0 0.0 0.0 0.00 0.00 0.00 96 1018.8
20260509195434 61 0 0.0 0.0 0.00 0.00 0.00 96 1018.8
20260509194934 61 0 0.0 0.0 0.00 0.00 0.00 96 1018.8
20260509194433 60 0 0.0 0.0 0.00 0.00 0.00 96 1018.7
20260509193934 60 0 0.0 0.0 0.00 0.00 0.00 96 1018.7
20260509193434 60 0 0.0 0.0 0.00 0.00 0.00 96 1018.7
20260509192935 60 0 0.0 0.0 0.00 0.00 0.00 96 1018.7
20260509192434 60 0 0.0 0.0 0.00 0.00 0.00 96 1018.7
20260509191935 60 0 0.0 0.0 0.00 0.00 0.00 96 1018.7
20260509191433 60 0 0.0 0.0 0.00 0.00 0.00 97 1018.3
20260509190934 60 0 0.0 0.0 0.00 0.00 0.00 97 1018.3
20260509190433 60 0 0.0 0.0 0.00 0.00 0.00 97 1018.3
20260509185934 59 0 0.0 2.0 0.00 0.00 0.00 97 1018.4
20260509185434 59 0 0.0 5.0 0.00 0.00 0.00 97 1018.4
20260509184933 59 254 1.0 7.0 0.00 0.00 0.00 97 1018.4
20260509184433 58 249 1.0 7.0 0.00 0.00 0.00 96 1018.2
20260509183934 58 0 0.0 2.0 0.00 0.00 0.00 96 1018.2
20260509183435 58 0 0.0 2.0 0.00 0.00 0.00 96 1018.2
20260509182935 58 0 0.0 0.0 0.00 0.00 0.00 96 1018.1
20260509182434 58 0 0.0 0.0 0.00 0.00 0.00 96 1018.1
20260509181934 58 0 0.0 0.0 0.00 0.00 0.00 96 1018.1
20260509181434 58 0 0.0 0.0 0.00 0.00 0.00 95 1018.0
20260509180935 57 0 0.0 0.0 0.00 0.00 0.00 95 1018.0
20260509180435 57 0 0.0 0.0 0.00 0.00 0.00 95 1018.0
20260509175935 57 0 0.0 0.0 0.00 0.00 0.00 95 1017.9
20260509175434 57 0 0.0 0.0 0.00 0.00 0.00 95 1017.9
20260509174934 57 0 0.0 0.0 0.00 0.00 0.00 95 1017.9
20260509174435 57 0 0.0 0.0 0.00 0.00 0.00 95 1018.0
20260509173933 58 0 0.0 0.0 0.00 0.00 0.00 95 1018.0
20260509173434 57 0 0.0 0.0 0.00 0.00 0.00 95 1018.0
20260509172935 58 0 0.0 0.0 0.00 0.00 0.00 95 1018.0
20260509172434 58 0 0.0 0.0 0.00 0.00 0.00 95 1018.0
20260509171934 58 0 0.0 0.0 0.00 0.00 0.00 95 1018.0
20260509171434 58 0 0.0 0.0 0.00 0.00 0.00 95 1018.1
20260509170934 58 0 0.0 0.0 0.00 0.00 0.00 95 1018.1
20260509170433 58 0 0.0 0.0 0.00 0.00 0.00 95 1018.1
20260509165935 57 0 0.0 0.0 0.00 0.00 0.00 95 1018.1
20260509165435 57 0 0.0 0.0 0.00 0.00 0.00 95 1018.1
20260509164934 57 0 0.0 0.0 0.00 0.00 0.00 95 1018.1
20260509164433 58 0 0.0 0.0 0.00 0.00 0.00 95 1018.1
20260509163934 58 0 0.0 0.0 0.00 0.00 0.00 95 1018.1
20260509163434 58 0 0.0 0.0 0.00 0.00 0.00 95 1018.1
20260509162934 58 0 0.0 0.0 0.00 0.00 0.00 95 1018.1
20260509162433 58 0 0.0 0.0 0.00 0.00 0.00 95 1018.1
20260509161936 58 0 0.0 0.0 0.00 0.00 0.00 94 1018.1
20260509161435 58 0 0.0 0.0 0.00 0.00 0.00 94 1018.2
20260509160934 58 0 0.0 0.0 0.00 0.00 0.00 94 1018.2
20260509160434 58 0 0.0 0.0 0.00 0.00 0.00 94 1018.2
20260509155933 58 0 0.0 0.0 0.00 0.00 0.00 94 1018.1
20260509155435 58 0 0.0 0.0 0.00 0.00 0.00 94 1018.1
20260509154934 58 0 0.0 0.0 0.00 0.00 0.00 94 1018.1
20260509154434 58 0 0.0 0.0 0.00 0.00 0.00 94 1018.2
20260509153934 58 0 0.0 0.0 0.00 0.00 0.00 94 1018.2
20260509153435 58 0 0.0 0.0 0.00 0.00 0.00 94 1018.2
20260509152934 58 0 0.0 0.0 0.00 0.00 0.00 94 1018.2
20260509152434 58 0 0.0 0.0 0.00 0.00 0.00 94 1018.2
20260509151934 58 0 0.0 0.0 0.00 0.00 0.00 94 1018.2
20260509151435 58 0 0.0 0.0 0.00 0.00 0.00 94 1018.3
20260509150934 58 0 0.0 0.0 0.00 0.00 0.00 94 1018.3
20260509150434 58 0 0.0 0.0 0.00 0.00 0.00 93 1018.3
20260509145934 58 0 0.0 0.0 0.00 0.00 0.00 93 1018.5
20260509145433 58 0 0.0 0.0 0.00 0.00 0.00 93 1018.5
20260509144934 58 0 0.0 0.0 0.00 0.00 0.00 93 1018.5
20260509144434 58 0 0.0 0.0 0.00 0.00 0.00 93 1018.6
20260509143933 58 0 0.0 0.0 0.00 0.00 0.00 93 1018.6
20260509143435 58 0 0.0 0.0 0.00 0.00 0.00 93 1018.6
20260509142936 58 0 0.0 0.0 0.00 0.00 0.00 93 1018.7
20260509142436 58 0 0.0 0.0 0.00 0.00 0.00 93 1018.7
20260509141935 58 0 0.0 0.0 0.00 0.00 0.00 93 1018.7
20260509141434 58 0 0.0 0.0 0.00 0.00 0.00 93 1018.8
20260509140934 58 0 0.0 0.0 0.00 0.00 0.00 93 1018.8
20260509140433 58 0 0.0 0.0 0.00 0.00 0.00 93 1018.8
20260509135933 58 0 0.0 0.0 0.00 0.00 0.00 93 1018.8
20260509135434 58 0 0.0 0.0 0.00 0.00 0.00 92 1018.8
20260509134933 58 0 0.0 0.0 0.00 0.00 0.00 92 1018.8
20260509134434 59 0 0.0 0.0 0.00 0.00 0.00 92 1018.8
20260509133933 59 0 0.0 0.0 0.00 0.00 0.00 92 1018.8
20260509133435 59 0 0.0 0.0 0.00 0.00 0.00 92 1018.8
20260509132935 59 0 0.0 0.0 0.00 0.00 0.00 92 1019.0
20260509132434 59 0 0.0 0.0 0.00 0.00 0.00 92 1019.0
20260509131935 59 0 0.0 0.0 0.00 0.00 0.00 92 1019.0
20260509131435 59 0 0.0 0.0 0.00 0.00 0.00 92 1019.1
20260509130935 59 0 0.0 0.0 0.00 0.00 0.00 92 1019.1
20260509130434 59 0 0.0 0.0 0.00 0.00 0.00 92 1019.1
20260509125934 59 0 0.0 0.0 0.00 0.00 0.00 92 1019.1
20260509125435 59 0 0.0 0.0 0.00 0.00 0.00 92 1019.1
20260509124934 59 0 0.0 0.0 0.00 0.00 0.00 91 1019.1
20260509124433 59 0 0.0 0.0 0.00 0.00 0.00 91 1019.1
20260509123934 60 0 0.0 0.0 0.00 0.00 0.00 91 1019.1
20260509123434 60 0 0.0 0.0 0.00 0.00 0.00 91 1019.1
20260509122933 60 0 0.0 0.0 0.00 0.00 0.00 91 1019.1
20260509122434 60 0 0.0 0.0 0.00 0.00 0.00 91 1019.1
20260509121934 60 0 0.0 0.0 0.00 0.00 0.00 91 1019.1
20260509121434 60 0 0.0 0.0 0.00 0.00 0.00 91 1019.1
20260509120935 60 0 0.0 0.0 0.00 0.00 0.00 91 1019.1
20260509120434 60 0 0.0 0.0 0.00 0.00 0.00 91 1019.1
20260509115933 60 0 0.0 0.0 0.00 0.00 0.00 91 1019.1
20260509115434 60 0 0.0 0.0 0.00 0.00 0.00 91 1019.1
20260509114934 60 0 0.0 0.0 0.00 0.00 0.00 91 1019.1
20260509114434 60 0 0.0 0.0 0.00 0.00 0.00 91 1019.1
20260509113935 60 0 0.0 0.0 0.00 0.00 0.00 90 1019.1
20260509113435 60 0 0.0 0.0 0.00 0.00 0.00 90 1019.1
20260509112934 60 0 0.0 0.0 0.00 0.00 0.00 90 1019.1
20260509112434 60 0 0.0 0.0 0.00 0.00 0.00 90 1019.1
20260509111935 60 0 0.0 0.0 0.00 0.00 0.00 90 1019.1
20260509111434 60 0 0.0 0.0 0.00 0.00 0.00 90 1019.2
20260509110933 60 0 0.0 0.0 0.00 0.00 0.00 89 1019.2
20260509110434 60 0 0.0 0.0 0.00 0.00 0.00 89 1019.2
20260509105934 61 0 0.0 0.0 0.00 0.00 0.00 89 1019.1
20260509105435 61 0 0.0 0.0 0.00 0.00 0.00 89 1019.1
20260509104934 61 0 0.0 0.0 0.00 0.00 0.00 89 1019.1
20260509104435 61 0 0.0 0.0 0.00 0.00 0.00 89 1019.1
20260509103934 61 0 0.0 0.0 0.00 0.00 0.00 89 1019.1
20260509103434 61 0 0.0 0.0 0.00 0.00 0.00 88 1019.1
20260509102933 61 0 0.0 0.0 0.00 0.00 0.00 88 1019.1
20260509102434 61 0 0.0 0.0 0.00 0.00 0.00 88 1019.1
20260509101933 61 0 0.0 0.0 0.00 0.00 0.00 87 1019.1
20260509101433 61 0 0.0 0.0 0.00 0.00 0.00 87 1019.0
20260509100935 61 0 0.0 0.0 0.00 0.00 0.00 87 1019.0
20260509100434 62 0 0.0 0.0 0.00 0.00 0.00 87 1019.0
20260509095933 62 0 0.0 0.0 0.00 0.00 0.00 86 1018.9
20260509095434 62 0 0.0 0.0 0.00 0.00 0.00 86 1018.9
20260509094933 62 0 0.0 0.0 0.00 0.00 0.00 86 1018.9
20260509094434 62 0 0.0 0.0 0.00 0.00 0.00 85 1018.8
20260509093934 62 0 0.0 0.0 0.00 0.00 0.00 85 1018.8
20260509093433 62 0 0.0 0.0 0.00 0.00 0.00 84 1018.8
20260509092934 63 0 0.0 0.0 0.00 0.00 0.00 84 1018.6
20260509092434 63 0 0.0 0.0 0.00 0.00 0.00 84 1018.6
20260509091934 63 0 0.0 0.0 0.00 0.00 0.00 83 1018.6
20260509091433 63 0 0.0 0.0 0.00 0.00 0.00 83 1018.5
20260509090935 64 0 0.0 0.0 0.00 0.00 0.00 83 1018.5
20260509090434 64 0 0.0 0.0 0.00 0.00 0.00 82 1018.5
20260509085933 64 0 0.0 0.0 0.00 0.00 0.00 82 1018.3
20260509085434 64 0 0.0 0.0 0.00 0.00 0.00 82 1018.3
20260509084934 65 0 0.0 0.0 0.00 0.00 0.00 81 1018.3
20260509084433 65 0 0.0 0.0 0.00 0.00 0.00 81 1018.2
20260509083934 65 0 0.0 0.0 0.00 0.00 0.00 80 1018.2
20260509083433 66 0 0.0 0.0 0.00 0.00 0.00 80 1018.2
20260509082933 66 0 0.0 0.0 0.00 0.00 0.00 79 1018.1
20260509082434 66 0 0.0 0.0 0.00 0.00 0.00 79 1018.1
20260509081933 66 0 0.0 0.0 0.00 0.00 0.00 78 1018.1
20260509081434 67 0 0.0 0.0 0.00 0.00 0.00 77 1017.9
20260509080935 67 0 0.0 0.0 0.00 0.00 0.00 77 1017.9
20260509080434 68 0 0.0 0.0 0.00 0.00 0.00 76 1017.9
20260509075935 68 0 0.0 0.0 0.00 0.00 0.00 76 1017.7
20260509075433 69 0 0.0 0.0 0.00 0.00 0.00 75 1017.7
20260509074936 69 0 0.0 0.0 0.00 0.00 0.00 75 1017.7
20260509074434 70 0 0.0 0.0 0.00 0.00 0.00 74 1017.6
20260509073933 70 0 0.0 0.0 0.00 0.00 0.00 74 1017.6
20260509073434 71 0 0.0 0.0 0.00 0.00 0.00 73 1017.6
20260509072933 71 0 0.0 0.0 0.00 0.00 0.00 72 1017.5
20260509072434 72 0 0.0 0.0 0.00 0.00 0.00 72 1017.5
20260509071934 72 0 0.0 0.0 0.00 0.00 0.00 71 1017.5
20260509071437 73 0 0.0 0.0 0.00 0.00 0.00 71 1017.3
20260509070934 73 0 0.0 0.0 0.00 0.00 0.00 70 1017.3
20260509070433 74 0 0.0 0.0 0.00 0.00 0.00 70 1017.3
20260509065934 74 0 0.0 0.0 0.00 0.00 0.00 69 1017.1
20260509065435 74 0 0.0 0.0 0.00 0.00 0.00 69 1017.1
20260509064933 74 0 0.0 0.0 0.00 0.00 0.00 69 1017.1
20260509064434 74 0 0.0 1.0 0.00 0.00 0.00 69 1017.0
20260509063934 74 0 0.0 1.0 0.00 0.00 0.00 69 1017.0
20260509063433 75 0 0.0 3.0 0.00 0.00 0.00 69 1017.0
20260509062933 75 0 0.0 3.0 0.00 0.00 0.00 68 1016.9
20260509062433 75 0 0.0 2.0 0.00 0.00 0.00 68 1016.9
20260509061933 75 0 0.0 2.0 0.00 0.00 0.00 68 1016.9
20260509061434 75 0 0.0 2.0 0.00 0.00 0.00 68 1016.7
20260509060934 75 132 1.0 2.0 0.00 0.00 0.00 68 1016.7
20260509060433 75 138 1.0 3.0 0.00 0.00 0.00 67 1016.7
20260509055934 75 0 0.0 5.0 0.00 0.00 0.00 68 1016.6
20260509055433 76 0 0.0 5.0 0.00 0.00 0.00 68 1016.6
20260509054934 76 0 0.0 2.0 0.00 0.00 0.00 67 1016.6
20260509054434 76 0 0.0 3.0 0.00 0.00 0.00 67 1016.6
20260509053933 76 0 0.0 3.0 0.00 0.00 0.00 67 1016.6
20260509053435 76 0 0.0 2.0 0.00 0.00 0.00 67 1016.6
20260509052935 76 0 0.0 3.0 0.00 0.00 0.00 67 1016.5
20260509052433 76 0 0.0 3.0 0.00 0.00 0.00 68 1016.5
20260509051934 76 0 0.0 2.0 0.00 0.00 0.00 67 1016.5
20260509051435 76 154 1.0 5.0 0.00 0.00 0.00 67 1016.5
20260509050934 76 0 0.0 5.0 0.00 0.00 0.00 68 1016.5
20260509050435 76 0 0.0 3.0 0.00 0.00 0.00 67 1016.5
20260509045933 76 0 0.0 3.0 0.00 0.00 0.00 68 1016.5
20260509045433 76 115 1.0 3.0 0.00 0.00 0.00 68 1016.5
20260509044934 76 135 1.0 4.0 0.00 0.00 0.00 67 1016.5
20260509044434 76 156 1.0 4.0 0.00 0.00 0.00 68 1016.4
20260509043935 75 146 1.0 3.0 0.00 0.00 0.00 68 1016.4
20260509043434 75 0 0.0 3.0 0.00 0.00 0.00 68 1016.4
20260509042933 75 0 0.0 3.0 0.00 0.00 0.00 67 1016.5
20260509042433 75 136 1.0 6.0 0.00 0.00 0.00 66 1016.5
20260509041934 76 135 1.0 6.0 0.00 0.00 0.00 66 1016.5
20260509041433 76 135 1.0 3.0 0.00 0.00 0.00 66 1016.4
20260509040933 76 134 1.0 3.0 0.00 0.00 0.00 66 1016.4
20260509040434 76 161 1.0 3.0 0.00 0.00 0.00 67 1016.4
20260509035935 76 154 1.0 4.0 0.00 0.00 0.00 67 1016.3
20260509035433 76 137 1.0 6.0 0.00 0.00 0.00 66 1016.3
20260509034933 76 149 2.0 6.0 0.00 0.00 0.00 66 1016.3
20260509034434 76 156 1.0 5.0 0.00 0.00 0.00 66 1016.4
20260509033935 76 151 1.0 5.0 0.00 0.00 0.00 66 1016.4
20260509033433 76 144 1.0 5.0 0.00 0.00 0.00 65 1016.4
20260509032934 76 143 1.0 5.0 0.00 0.00 0.00 64 1016.5
20260509032435 77 140 1.0 6.0 0.00 0.00 0.00 65 1016.5
20260509031933 77 148 1.0 6.0 0.00 0.00 0.00 65 1016.5
20260509031434 77 153 1.0 5.0 0.00 0.00 0.00 65 1016.6
20260509030933 77 140 2.0 6.0 0.00 0.00 0.00 64 1016.6
20260509030434 77 138 1.0 8.0 0.00 0.00 0.00 65 1016.6
20260509025935 77 151 1.0 8.0 0.00 0.00 0.00 65 1016.6
20260509025434 77 157 1.0 5.0 0.00 0.00 0.00 65 1016.6
20260509024933 77 144 1.0 5.0 0.00 0.00 0.00 65 1016.6
20260509024434 77 130 1.0 5.0 0.00 0.00 0.00 65 1016.7
20260509023933 77 126 1.0 5.0 0.00 0.00 0.00 64 1016.7
20260509023434 77 133 1.0 4.0 0.00 0.00 0.00 65 1016.7
20260509022933 77 155 1.0 3.0 0.00 0.00 0.00 65 1017.0
20260509022433 77 150 1.0 4.0 0.00 0.00 0.00 65 1017.0
20260509021934 77 139 1.0 4.0 0.00 0.00 0.00 64 1017.0
20260509021433 77 143 1.0 5.0 0.00 0.00 0.00 64 1017.0
20260509020933 77 134 1.0 7.0 0.00 0.00 0.00 65 1017.0
20260509020433 77 120 1.0 7.0 0.00 0.00 0.00 64 1017.0
20260509015934 77 114 1.0 5.0 0.00 0.00 0.00 65 1017.1
20260509015433 77 118 1.0 4.0 0.00 0.00 0.00 65 1017.1
20260509014933 77 161 1.0 4.0 0.00 0.00 0.00 65 1017.1
20260509014433 77 177 1.0 4.0 0.00 0.00 0.00 65 1017.1
20260509013933 77 127 1.0 5.0 0.00 0.00 0.00 65 1017.1
20260509013435 77 129 1.0 5.0 0.00 0.00 0.00 64 1017.1
20260509012933 77 146 1.0 5.0 0.00 0.00 0.00 65 1017.2
20260509012433 77 150 1.0 4.0 0.00 0.00 0.00 66 1017.2
20260509011934 77 135 1.0 4.0 0.00 0.00 0.00 67 1017.2
20260509011434 76 115 1.0 5.0 0.00 0.00 0.00 66 1017.2
20260509010935 76 120 1.0 5.0 0.00 0.00 0.00 66 1017.2
20260509010434 76 162 1.0 3.0 0.00 0.00 0.00 67 1017.2
20260509005934 76 142 1.0 5.0 0.00 0.00 0.00 66 1017.5
20260509005433 76 140 1.0 5.0 0.00 0.00 0.00 66 1017.5
20260509004933 76 155 1.0 3.0 0.00 0.00 0.00 66 1017.5
20260509004433 76 143 1.0 3.0 0.00 0.00 0.00 67 1017.6
20260509003933 76 0 0.0 4.0 0.00 0.00 0.00 67 1017.6
20260509003433 76 0 0.0 4.0 0.00 0.00 0.00 68 1017.6
20260509002934 75 0 0.0 2.0 0.00 0.00 0.00 70 1017.8
20260509002433 75 0 0.0 2.0 0.00 0.00 0.00 69 1017.8
20260509001934 74 0 0.0 2.0 0.00 0.00 0.00 69 1017.8
20260509001433 74 0 0.0 4.0 0.00 0.00 0.00 69 1017.8
20260509000935 73 235 1.0 4.0 0.00 0.00 0.00 68 1017.8
20260509000434 73 239 1.0 5.0 0.00 0.00 0.00 68 1017.8
20260508235933 73 245 1.0 6.0 0.00 0.00 0.00 67 1017.6
20260508235433 73 244 1.0 6.0 0.00 0.00 0.00 68 1017.6
20260508234934 72 246 1.0 9.0 0.00 0.00 0.00 69 1017.6